Torna al catalogo

NOAA 16 DEB

AttivoPO
NORAD 42344·DEBRIS·🇺🇸 United States

Lanciato Sep 21, 2000 da Vandenberg Space Force Base

Loading…

Prossimi Passaggi (prossime 24 ore)

TLE

AggiornatoSource: Space-Track

Epoca: Sep 13, 2026, 08:02 UTC

1 42344U 00055QL  26256.33482096  .00007015  00000-0  14167-2 0  9997
2 42344  98.7401  38.1674 0027904  79.0217 281.4119 14.61487906542424

Traccia NOAA 16 DEB in tempo reale con AllMySat

Download on the App Store